Location: Errabaliem
(16.8108°N, 80.4255°E)
Time: 11:41:31
(UTC+00:00)

Cosmos 1244 Rocket - Pass Details

Date: 05 August 2024
Orbit: 952 x 998 km, 83.0° (Epoch: 12 September)

Event Time Altitude Azimuth Distance (km) Brightness Sun altitude
Rises 22:15:45 0° 356° (N) 3,624 7.8 -28.1°
Reaches altitude 10° 22:18:15 10° 357° (N) 2,675 7.1 -27.6°
Maximum altitude 22:24:22 87° 87° (E) 956 4.4 -26.3°
Enters shadow 22:27:39 29° 175° (S) 1,653 5.5 -25.6°
